Location: LDNL
(36.4545°S, 141.6685°E)
Time: 03:00:44
(UTC+11:00)

Vanguard 2 - Pass Details

Date: 17 August 2022
Orbit: 552 x 2934 km, 32.9° (Epoch: 06 October)

Event Time Altitude Azimuth Distance (km) Brightness Sun altitude
Rises 22:54:48 0° 261° (W) 5,565 12.3 -57.4°
Reaches altitude 10° 23:00:28 10° 277° (W) 4,041 11.4 -58.3°
Enters shadow 23:01:32 12° 281° (WNW) 3,780 11.2 -58.4°
Maximum altitude 23:06:28 17° 313° (NW) 2,882 - -59.2°
Drops below altitude 10° 23:11:04 10° 352° (N) 2,935 - -59.8°
Sets 23:14:18 0° 13° (NNE) 3,546 - -60.3°
